Date,TemperatureHighF,TemperatureAvgF,TemperatureLowF,DewpointHighF,DewpointAvgF,DewpointLowF,HumidityHigh,HumidityAvg,HumidityLow,PressureMaxIn,PressureMinIn,WindSpeedMaxMPH,WindSpeedAvgMPH,GustSpeedMaxMPH,PrecipitationSumIn
2013-1-7,35.8,17.7,4.5,5.5,-4.1,-9.9,58,39,21,30.09,29.99,8,2,0,0.00
2013-1-8,31.1,15.4,5.9,13.7,2.1,-11.2,82,56,38,30.29,29.98,12,2,0,0.00
2013-1-9,45.7,19.8,3.9,16.8,6.5,-2.0,88,59,24,30.32,30.11,5,2,0,0.00
2013-1-10,40.5,23.8,12.4,7.1,2.3,-2.8,56,40,17,30.11,29.65,9,2,0,0.00
2013-1-11,25.0,12.9,0.5,15.3,-0.0,-17.6,82,57,26,29.74,29.47,24,4,0,0.00
2013-1-12,10.0,-2.6,-13.7,-6.8,-12.3,-20.6,79,64,33,29.80,20.31,9,3,0,0.00
2013-1-13,5.7,-5.4,-15.9,-6.8,-14.8,-23.3,79,64,36,29.84,29.76,9,4,0,0.00
2013-1-14,3.9,-9.8,-19.5,0.0,-18.0,-26.5,79,66,46,29.95,20.38,9,4,0,0.00
2013-1-15,4.8,-5.1,-21.5,0.0,-12.8,-28.7,77,68,54,30.21,29.95,10,3,0,0.00
2013-1-16,27.7,12.8,3.7,12.3,4.1,-2.7,83,68,49,30.33,20.58,8,2,0,0.00
2013-1-17,32.2,14.4,2.1,13.2,2.9,-5.5,82,62,36,30.37,30.29,6,1,0,0.00
2013-1-18,38.1,17.4,3.7,6.4,0.7,-4.4,76,51,23,30.29,20.60,6,2,0,0.00
2013-1-19,36.3,16.4,5.9,3.9,-2.2,-6.8,59,45,22,30.33,30.20,6,2,0,0.00
2013-2-18,18.0,11.0,8.6,3.0,1.6,-1.3,76,66,45,29.98,29.89,9,4,0,0.00
2013-2-27,18.9,10.9,-2.2,4.9,-1.0,-8.1,81,59,41,30.16,30.09,13,3,0,0.00
2013-2-28,23.0,10.2,-4.9,11.6,0.7,-11.3,82,67,39,30.21,30.16,12,3,0,0.00
2013-3-1,30.2,22.9,16.3,19.6,14.9,9.2,81,72,54,30.35,30.20,21,5,0,0.00
2013-3-2,41.7,30.3,23.2,20.5,17.5,13.7,77,60,39,30.37,30.17,7,2,0,0.00
2013-3-3,40.5,32.1,18.3,25.9,17.3,9.9,87,57,33,30.17,29.88,12,3,0,0.00
2013-3-4,32.0,19.8,-1.8,25.3,12.6,-7.5,87,74,54,30.13,29.83,147,4,0,0.00
2013-3-5,41.5,15.1,-6.9,11.7,-2.0,-79.9,83,53,1,30.21,30.13,8,3,0,0.00
2013-3-6,48.9,27.9,8.8,12.7,3.0,-4.1,58,38,14,30.15,29.99,11,3,0,0.00
2013-3-7,37.6,25.4,20.8,9.3,7.0,5.2,51,45,26,30.07,30.01,5,2,0,0.00
2013-9-12,64.2,55.7,49.3,49.1,46.5,41.8,92,73,48,30.39,30.31,8,2,0,8.74
2013-9-13,61.5,52.9,46.0,47.9,44.4,39.9,93,75,47,30.31,30.17,8,1,0,0.35
2013-9-14,62.4,49.2,41.9,47.9,42.0,37.3,91,78,42,30.23,30.16,12,2,0,0.35
2013-9-15,63.3,47.4,39.2,45.0,40.7,36.5,93,80,38,30.35,30.22,9,2,0,0.12
2013-9-16,63.9,48.5,36.0,43.2,38.0,33.9,93,71,34,30.35,30.29,11,2,0,0.00
2013-9-17,69.8,51.2,36.5,41.8,35.4,27.5,93,62,21,30.32,30.16,8,2,0,0.00
2013-9-18,67.1,48.1,40.5,42.7,37.5,29.7,92,70,26,30.22,30.13,10,2,0,0.24
2013-9-19,59.7,45.6,33.3,40.6,30.6,13.8,92,62,18,30.29,30.17,12,3,0,0.00
2013-9-20,67.1,45.5,28.6,30.2,22.1,11.5,86,49,12,30.30,30.24,9,2,0,0.00
2013-9-21,67.3,48.8,32.7,33.7,27.6,23.5,75,48,21,30.27,30.13,13,2,0,0.00
2013-9-22,57.2,43.1,36.3,44.3,35.4,28.8,92,75,48,30.13,29.91,8,2,0,0.67
2013-9-23,48.2,38.7,33.3,34.5,28.1,23.3,91,68,39,30.20,29.89,17,6,0,0.04